Location: Carnières
(50.1682°N, 3.3474°E)
Time: 12:16:07
(UTC+00:00)

Cosmos 1954 Rocket - Pass Details

Date: 23 May 2024
Orbit: 750 x 779 km, 74.0° (Epoch: 14 June)

Event Time Altitude Azimuth Distance (km) Brightness Sun altitude
Exits shadow 00:48:44 32° 189° (S) 1,327 4.7 -17.7°
Maximum altitude 00:51:16 74° 111° (ESE) 813 4.1 -17.6°
Drops below altitude 10° 00:56:35 10° 27° (NNE) 2,340 7.8 -17.4°
Sets 00:58:59 0° 26° (NNE) 3,270 9.0 -17.2°
